Time,TemperatureF,DewpointF,PressureIn,WindDirection,WindDirectionDegrees,WindSpeedMPH,WindSpeedGustMPH,Humidity,HourlyPrecipIn,Conditions,Clouds,dailyrainin,SolarRadiationWatts/m^2,SoftwareType,DateUTC
2013-05-09 00:08:00,54.0,49.0,30.09,West,275,5.0,9.0,82,0.00,,,0.00,0,weatherlink.com 1.10,2013-05-09 07:08:00,
2013-05-09 00:23:00,54.0,49.0,30.09,West,274,5.0,8.0,82,0.00,,,0.00,0,weatherlink.com 1.10,2013-05-09 07:23:00,
2013-05-09 00:38:00,53.9,49.0,30.09,West,273,6.0,6.0,83,0.00,,,0.00,0,weatherlink.com 1.10,2013-05-09 07:38:00,
2013-05-09 00:53:00,53.6,49.0,30.09,West,271,1.0,5.0,84,0.00,,,0.00,0,weatherlink.com 1.10,2013-05-09 07:53:00,
2013-05-09 01:08:00,53.4,49.0,30.09,West,281,0.0,5.0,85,0.00,,,0.00,0,weatherlink.com 1.10,2013-05-09 08:08:00,
2013-05-09 01:23:00,53.1,49.0,30.09,SW,230,2.0,6.0,85,0.00,,,0.00,0,weatherlink.com 1.10,2013-05-09 08:23:00,
2013-05-09 01:38:00,53.2,49.0,30.09,West,277,3.0,8.0,85,0.00,,,0.00,0,weatherlink.com 1.10,2013-05-09 08:38:00,
2013-05-09 01:53:00,53.2,49.0,30.09,West,265,3.0,5.0,85,0.00,,,0.00,0,weatherlink.com 1.10,2013-05-09 08:53:00,
2013-05-09 02:08:00,53.1,49.0,30.08,West,279,1.0,8.0,86,0.00,,,0.00,0,weatherlink.com 1.10,2013-05-09 09:08:00,
2013-05-09 02:23:00,53.0,49.0,30.08,West,271,0.0,4.0,86,0.00,,,0.00,0,weatherlink.com 1.10,2013-05-09 09:23:00,
2013-05-09 02:38:00,52.7,49.0,30.08,West,271,0.0,2.0,86,0.00,,,0.00,0,weatherlink.com 1.10,2013-05-09 09:38:00,
2013-05-09 02:53:00,52.2,49.0,30.08,West,271,2.0,3.0,87,0.00,,,0.00,0,weatherlink.com 1.10,2013-05-09 09:53:00,
2013-05-09 03:08:00,52.0,49.0,30.07,WSW,247,0.0,5.0,88,0.00,,,0.00,0,weatherlink.com 1.10,2013-05-09 10:08:00,
2013-05-09 03:24:00,51.7,48.0,30.07,SW,236,0.0,3.0,88,0.00,,,0.00,0,weatherlink.com 1.10,2013-05-09 10:24:00,
2013-05-09 03:39:00,51.5,48.0,30.08,West,261,0.0,1.0,89,0.00,,,0.00,0,weatherlink.com 1.10,2013-05-09 10:39:00,
2013-05-09 03:54:00,51.3,48.0,30.08,WSW,254,1.0,3.0,89,0.00,,,0.00,0,weatherlink.com 1.10,2013-05-09 10:54:00,
2013-05-09 04:09:00,51.1,48.0,30.08,WSW,254,2.0,2.0,89,0.00,,,0.00,0,weatherlink.com 1.10,2013-05-09 11:09:00,
2013-05-09 04:24:00,51.0,48.0,30.08,SW,227,0.0,4.0,90,0.00,,,0.00,0,weatherlink.com 1.10,2013-05-09 11:24:00,
2013-05-09 04:39:00,51.2,48.0,30.08,West,274,3.0,5.0,90,0.00,,,0.00,0,weatherlink.com 1.10,2013-05-09 11:39:00,
2013-05-09 04:54:00,51.3,49.0,30.07,WSW,248,2.0,6.0,90,0.00,,,0.00,0,weatherlink.com 1.10,2013-05-09 11:54:00,
2013-05-09 05:09:00,51.3,49.0,30.07,WSW,250,1.0,4.0,90,0.00,,,0.00,0,weatherlink.com 1.10,2013-05-09 12:09:00,
2013-05-09 05:24:00,51.4,49.0,30.07,WNW,284,3.0,5.0,90,0.00,,,0.00,0,weatherlink.com 1.10,2013-05-09 12:24:00,
2013-05-09 05:39:00,51.6,49.0,30.07,West,281,4.0,10.0,90,0.00,,,0.00,0,weatherlink.com 1.10,2013-05-09 12:39:00,
2013-05-09 05:54:00,51.6,49.0,30.07,WNW,292,0.0,4.0,90,0.00,,,0.00,0,weatherlink.com 1.10,2013-05-09 12:54:00,
2013-05-09 06:09:00,51.4,49.0,30.07,WNW,287,2.0,5.0,90,0.00,,,0.00,7,weatherlink.com 1.10,2013-05-09 13:09:00,
2013-05-09 06:24:00,51.3,49.0,30.08,WNW,286,1.0,3.0,90,0.00,,,0.00,16,weatherlink.com 1.10,2013-05-09 13:24:00,
2013-05-09 06:39:00,51.5,49.0,30.08,West,278,6.0,8.0,91,0.00,,,0.00,25,weatherlink.com 1.10,2013-05-09 13:39:00,
2013-05-09 06:54:00,52.2,49.0,30.09,West,281,3.0,6.0,90,0.00,,,0.00,56,weatherlink.com 1.10,2013-05-09 13:54:00,
2013-05-09 07:09:00,53.0,50.0,30.09,West,275,4.0,5.0,89,0.00,,,0.00,47,weatherlink.com 1.10,2013-05-09 14:09:00,
2013-05-09 07:25:00,53.9,51.0,30.10,NW,311,1.0,7.0,88,0.00,,,0.00,76,weatherlink.com 1.10,2013-05-09 14:25:00,
2013-05-09 07:39:00,54.9,51.0,30.10,WNW,302,3.0,5.0,87,0.00,,,0.00,214,weatherlink.com 1.10,2013-05-09 14:39:00,
2013-05-09 07:54:00,55.9,52.0,30.11,West,272,1.0,6.0,85,0.00,,,0.00,253,weatherlink.com 1.10,2013-05-09 14:54:00,
2013-05-09 08:09:00,57.0,52.0,30.11,WNW,299,2.0,7.0,83,0.00,,,0.00,301,weatherlink.com 1.10,2013-05-09 15:09:00,
2013-05-09 08:24:00,58.2,52.0,30.12,NW,309,4.0,5.0,80,0.00,,,0.00,346,weatherlink.com 1.10,2013-05-09 15:24:00,
2013-05-09 08:39:00,59.4,53.0,30.12,NW,317,3.0,4.0,79,0.00,,,0.00,385,weatherlink.com 1.10,2013-05-09 15:39:00,
2013-05-09 08:54:00,60.8,54.0,30.11,West,267,1.0,8.0,78,0.00,,,0.00,443,weatherlink.com 1.10,2013-05-09 15:54:00,
2013-05-09 09:09:00,61.5,54.0,30.11,WNW,302,6.0,10.0,75,0.00,,,0.00,487,weatherlink.com 1.10,2013-05-09 16:09:00,
2013-05-09 09:24:00,62.6,55.0,30.11,NNW,338,2.0,10.0,76,0.00,,,0.00,534,weatherlink.com 1.10,2013-05-09 16:24:00,
2013-05-09 09:39:00,63.6,54.0,30.11,NW,325,4.0,10.0,72,0.00,,,0.00,575,weatherlink.com 1.10,2013-05-09 16:39:00,
2013-05-09 09:54:00,64.6,55.0,30.11,SW,234,6.0,11.0,72,0.00,,,0.00,608,weatherlink.com 1.10,2013-05-09 16:54:00,
2013-05-09 10:10:00,66.1,55.0,30.10,WNW,296,4.0,9.0,68,0.00,,,0.00,657,weatherlink.com 1.10,2013-05-09 17:10:00,
2013-05-09 10:25:00,67.2,56.0,30.10,West,271,7.0,8.0,68,0.00,,,0.00,691,weatherlink.com 1.10,2013-05-09 17:25:00,
2013-05-09 10:40:00,67.7,56.0,30.10,WNW,298,4.0,10.0,66,0.00,,,0.00,726,weatherlink.com 1.10,2013-05-09 17:40:00,
2013-05-09 10:55:00,69.0,57.0,30.10,WNW,297,3.0,9.0,66,0.00,,,0.00,758,weatherlink.com 1.10,2013-05-09 17:55:00,
2013-05-09 11:10:00,69.9,58.0,30.10,WNW,282,4.0,10.0,67,0.00,,,0.00,786,weatherlink.com 1.10,2013-05-09 18:10:00,
2013-05-09 11:25:00,70.8,58.0,30.10,NW,304,6.0,10.0,64,0.00,,,0.00,810,weatherlink.com 1.10,2013-05-09 18:25:00,
2013-05-09 11:40:00,71.4,58.0,30.10,NE,38,4.0,10.0,63,0.00,,,0.00,831,weatherlink.com 1.10,2013-05-09 18:40:00,
2013-05-09 11:55:00,72.2,57.0,30.10,WSW,250,1.0,10.0,59,0.00,,,0.00,837,weatherlink.com 1.10,2013-05-09 18:55:00,
2013-05-09 12:10:00,73.2,58.0,30.10,West,279,7.0,12.0,59,0.00,,,0.00,868,weatherlink.com 1.10,2013-05-09 19:10:00,
2013-05-09 12:25:00,73.8,59.0,30.09,WNW,287,7.0,9.0,60,0.00,,,0.00,881,weatherlink.com 1.10,2013-05-09 19:25:00,
2013-05-09 12:40:00,74.5,60.0,30.09,NW,314,5.0,11.0,60,0.00,,,0.00,889,weatherlink.com 1.10,2013-05-09 19:40:00,
2013-05-09 12:55:00,75.1,58.0,30.08,NW,321,6.0,10.0,56,0.00,,,0.00,893,weatherlink.com 1.10,2013-05-09 19:55:00,
2013-05-09 13:10:00,75.7,59.0,30.08,WSW,257,2.0,10.0,56,0.00,,,0.00,896,weatherlink.com 1.10,2013-05-09 20:10:00,
2013-05-09 13:25:00,76.4,59.0,30.08,West,277,5.0,11.0,56,0.00,,,0.00,893,weatherlink.com 1.10,2013-05-09 20:25:00,
2013-05-09 13:40:00,77.0,60.0,30.07,West,264,4.0,11.0,55,0.00,,,0.00,889,weatherlink.com 1.10,2013-05-09 20:40:00,
2013-05-09 13:55:00,77.6,61.0,30.07,NW,321,3.0,8.0,57,0.00,,,0.00,877,weatherlink.com 1.10,2013-05-09 20:55:00,
2013-05-09 14:10:00,78.2,60.0,30.07,North,355,5.0,11.0,54,0.00,,,0.00,868,weatherlink.com 1.10,2013-05-09 21:10:00,
2013-05-09 14:26:00,78.8,59.0,30.06,NW,325,3.0,12.0,51,0.00,,,0.00,830,weatherlink.com 1.10,2013-05-09 21:26:00,
2013-05-09 14:41:00,78.9,59.0,30.05,NNW,342,7.0,12.0,50,0.00,,,0.00,835,weatherlink.com 1.10,2013-05-09 21:41:00,
2013-05-09 14:56:00,78.1,59.0,30.05,NNW,334,9.0,14.0,52,0.00,,,0.00,814,weatherlink.com 1.10,2013-05-09 21:56:00,
2013-05-09 15:11:00,77.6,58.0,30.05,WNW,301,4.0,11.0,52,0.00,,,0.00,788,weatherlink.com 1.10,2013-05-09 22:11:00,
2013-05-09 15:26:00,77.5,58.0,30.03,WSW,249,11.0,13.0,52,0.00,,,0.00,700,weatherlink.com 1.10,2013-05-09 22:26:00,
2013-05-09 15:41:00,77.6,58.0,30.04,West,281,8.0,15.0,51,0.00,,,0.00,677,weatherlink.com 1.10,2013-05-09 22:41:00,
2013-05-09 15:56:00,76.6,58.0,30.03,WNW,293,4.0,13.0,52,0.00,,,0.00,680,weatherlink.com 1.10,2013-05-09 22:56:00,
2013-05-09 16:11:00,75.7,57.0,30.03,NW,319,7.0,18.0,52,0.00,,,0.00,629,weatherlink.com 1.10,2013-05-09 23:11:00,
2013-05-09 16:26:00,75.1,57.0,30.02,WNW,302,6.0,16.0,53,0.00,,,0.00,622,weatherlink.com 1.10,2013-05-09 23:26:00,
2013-05-09 16:41:00,75.1,57.0,30.03,West,276,11.0,15.0,53,0.00,,,0.00,591,weatherlink.com 1.10,2013-05-09 23:41:00,
2013-05-09 16:56:00,74.8,57.0,30.03,SW,225,7.0,15.0,54,0.00,,,0.00,529,weatherlink.com 1.10,2013-05-09 23:56:00,
2013-05-09 17:11:00,74.8,57.0,30.03,NW,304,9.0,13.0,55,0.00,,,0.00,504,weatherlink.com 1.10,2013-05-10 00:11:00,
2013-05-09 17:26:00,74.4,57.0,30.02,NW,315,2.0,13.0,55,0.00,,,0.00,313,weatherlink.com 1.10,2013-05-10 00:26:00,
2013-05-09 17:41:00,73.0,56.0,30.02,WNW,286,7.0,16.0,56,0.00,,,0.00,308,weatherlink.com 1.10,2013-05-10 00:41:00,
2013-05-09 17:56:00,72.8,56.0,30.02,West,272,9.0,16.0,56,0.00,,,0.00,364,weatherlink.com 1.10,2013-05-10 00:56:00,
2013-05-09 18:11:00,72.5,56.0,30.02,WNW,284,5.0,13.0,56,0.00,,,0.00,265,weatherlink.com 1.10,2013-05-10 01:11:00,
2013-05-09 18:26:00,71.6,55.0,30.02,NNW,339,6.0,17.0,56,0.00,,,0.00,265,weatherlink.com 1.10,2013-05-10 01:26:00,
2013-05-09 18:41:00,70.5,54.0,30.02,West,281,2.0,14.0,57,0.00,,,0.00,213,weatherlink.com 1.10,2013-05-10 01:41:00,
2013-05-09 18:56:00,69.7,54.0,30.03,West,271,13.0,17.0,57,0.00,,,0.00,163,weatherlink.com 1.10,2013-05-10 01:56:00,
2013-05-09 19:11:00,68.6,54.0,30.03,West,279,3.0,13.0,59,0.00,,,0.00,44,weatherlink.com 1.10,2013-05-10 02:11:00,
2013-05-09 19:26:00,67.4,53.0,30.03,WNW,284,3.0,13.0,61,0.00,,,0.00,30,weatherlink.com 1.10,2013-05-10 02:26:00,
2013-05-09 19:41:00,66.3,52.0,30.03,WSW,243,9.0,17.0,61,0.00,,,0.00,19,weatherlink.com 1.10,2013-05-10 02:41:00,
2013-05-09 19:56:00,64.9,52.0,30.03,West,273,15.0,18.0,64,0.00,,,0.00,9,weatherlink.com 1.10,2013-05-10 02:56:00,
2013-05-09 20:11:00,63.9,52.0,30.03,NW,314,7.0,13.0,66,0.00,,,0.00,0,weatherlink.com 1.10,2013-05-10 03:11:00,
2013-05-09 20:26:00,63.3,52.0,30.04,WNW,284,9.0,14.0,66,0.00,,,0.00,0,weatherlink.com 1.10,2013-05-10 03:26:00,
2013-05-09 20:41:00,62.5,52.0,30.05,WNW,287,9.0,20.0,68,0.00,,,0.00,0,weatherlink.com 1.10,2013-05-10 03:41:00,
2013-05-09 20:56:00,61.4,52.0,30.05,NW,304,5.0,14.0,71,0.00,,,0.00,0,weatherlink.com 1.10,2013-05-10 03:56:00,
2013-05-09 21:11:00,60.5,51.0,30.06,West,278,11.0,19.0,71,0.00,,,0.00,0,weatherlink.com 1.10,2013-05-10 04:11:00,
2013-05-09 21:26:00,59.7,51.0,30.07,West,269,6.0,15.0,73,0.00,,,0.00,0,weatherlink.com 1.10,2013-05-10 04:26:00,
2013-05-09 21:41:00,58.7,51.0,30.07,West,267,11.0,16.0,76,0.00,,,0.00,0,weatherlink.com 1.10,2013-05-10 04:41:00,
2013-05-09 21:56:00,58.0,51.0,30.08,WNW,285,8.0,16.0,77,0.00,,,0.00,0,weatherlink.com 1.10,2013-05-10 04:56:00,
2013-05-09 22:11:00,57.6,50.0,30.08,West,269,6.0,16.0,77,0.00,,,0.00,0,weatherlink.com 1.10,2013-05-10 05:11:00,
2013-05-09 22:26:00,57.1,51.0,30.09,West,277,9.0,15.0,79,0.00,,,0.00,0,weatherlink.com 1.10,2013-05-10 05:26:00,
2013-05-09 22:41:00,56.7,50.0,30.09,WSW,240,9.0,13.0,79,0.00,,,0.00,0,weatherlink.com 1.10,2013-05-10 05:41:00,
2013-05-09 22:56:00,56.4,50.0,30.09,West,274,4.0,15.0,79,0.00,,,0.00,0,weatherlink.com 1.10,2013-05-10 05:56:00,
2013-05-09 23:11:00,56.2,50.0,30.09,WNW,285,13.0,15.0,80,0.00,,,0.00,0,weatherlink.com 1.10,2013-05-10 06:11:00,
2013-05-09 23:26:00,56.0,50.0,30.08,WNW,295,9.0,14.0,80,0.00,,,0.00,0,weatherlink.com 1.10,2013-05-10 06:26:00,
2013-05-09 23:41:00,55.8,50.0,30.09,WNW,300,9.0,13.0,80,0.00,,,0.00,0,weatherlink.com 1.10,2013-05-10 06:41:00,
2013-05-09 23:56:00,55.5,49.0,30.10,West,277,1.0,11.0,80,0.00,,,0.00,0,weatherlink.com 1.10,2013-05-10 06:56:00,